GW5240 Weather Reports


time (UTC)temp
F
wind
direction
speed
knots
gust
knots
rain 1hr
in
rain 24hr
in
rain mn
in
humidity
%
barometer
mb
20260504214209 58 336 6.1 10.4 0.00 0.00 0.00 39 1001.9
20260504213706 57 143 3.5 4.3 0.00 0.00 0.00 39 1001.8
20260504213202 58 71 5.2 8.7 0.00 0.00 0.00 39 1001.7
20260504212659 58 22 5.2 10.4 0.00 0.00 0.00 38 1001.7
20260504212156 61 187 6.1 12.2 0.00 0.00 0.00 36 1001.8
20260504211653 61 252 6.1 12.2 0.00 0.00 0.00 37 1001.6
20260504211149 61 343 5.2 16.5 0.00 0.00 0.00 36 1001.7
20260504210647 60 204 2.6 2.6 0.00 0.00 0.00 37 1001.7
20260504210143 60 0 7.8 10.4 0.00 0.00 0.00 37 1001.6
20260504205641 62 233 1.7 1.7 0.00 0.00 0.00 38 1001.5
20260504205138 61 283 4.3 7.8 0.00 0.00 0.00 36 1001.7
20260504204637 61 275 9.6 14.8 0.00 0.00 0.00 37 1001.4
20260504204135 61 311 6.1 12.2 0.00 0.00 0.00 37 1001.6
20260504203634 61 196 2.6 4.3 0.00 0.00 0.00 37 1001.5
20260504203131 63 300 7.8 10.4 0.00 0.00 0.00 36 1001.3
20260504202631 63 65 3.5 4.3 0.00 0.00 0.00 36 1001.3
20260504202128 64 91 7.0 10.4 0.00 0.00 0.00 35 1001.1
20260504201625 64 289 4.3 6.1 0.00 0.00 0.00 36 1001.0
20260504201123 64 312 5.2 8.7 0.00 0.00 0.00 36 1001.0
20260504200620 64 301 4.3 6.1 0.00 0.00 0.00 38 1001.0
20260504200116 63 31 2.6 4.3 0.00 0.00 0.00 37 1000.8
20260504195612 62 106 5.2 7.8 0.00 0.00 0.00 37 1000.9
20260504195108 62 278 4.3 7.8 0.00 0.00 0.00 38 1000.7
20260504194605 63 18 5.2 7.8 0.00 0.00 0.00 38 1000.9
20260504194101 63 66 2.6 2.6 0.00 0.00 0.00 38 1000.8
20260504193558 62 150 3.5 6.1 0.00 0.00 0.00 40 1000.7
20260504193056 61 344 7.0 10.4 0.00 0.00 0.00 38 1000.7
20260504192554 62 290 5.2 12.2 0.00 0.00 0.00 39 1000.6
20260504192052 63 334 6.1 10.4 0.00 0.00 0.00 38 1000.4
20260504191550 63 292 5.2 6.1 0.00 0.00 0.00 39 1000.6
20260504191046 63 327 4.3 6.1 0.00 0.00 0.00 38 1000.3
20260504190542 62 141 3.5 4.3 0.00 0.00 0.00 41 1000.2
20260504190038 62 312 7.0 13.0 0.00 0.00 0.00 38 1000.4
20260504185536 62 39 4.3 8.7 0.00 0.00 0.00 39 1000.4
20260504185032 62 240 6.1 8.7 0.00 0.00 0.00 37 1000.2
20260504184527 62 223 4.3 6.1 0.00 0.00 0.00 38 1000.0
20260504184023 63 277 4.3 7.8 0.00 0.00 0.00 36 1000.0
20260504183520 65 322 4.3 6.1 0.00 0.00 0.00 35 999.9
20260504183019 64 50 4.3 6.1 0.00 0.00 0.00 38 999.8
20260504182515 64 296 3.5 7.8 0.00 0.00 0.00 38 999.9
20260504182012 63 151 5.2 7.8 0.00 0.00 0.00 36 999.9
20260504181509 63 291 3.5 4.3 0.00 0.00 0.00 36 999.6
20260504181008 64 312 4.3 6.1 0.00 0.00 0.00 37 999.5
20260504180506 62 193 1.7 2.6 0.00 0.00 0.00 38 999.4
20260504180004 62 11 1.7 1.7 0.00 0.00 0.00 37 999.6
20260504175501 63 267 3.5 6.1 0.00 0.00 0.00 37 999.4
20260504174958 63 199 3.5 4.3 0.00 0.00 0.00 37 999.5
20260504174456 64 97 3.5 7.8 0.00 0.00 0.00 36 999.4
20260504173953 65 358 5.2 8.7 0.00 0.00 0.00 36 999.2
20260504173449 64 303 1.7 2.6 0.00 0.00 0.00 40 999.0
20260504172947 65 189 1.7 2.6 0.00 0.00 0.00 39 999.0
20260504172443 65 23 2.6 2.6 0.00 0.00 0.00 41 999.2
20260504171940 64 178 1.7 2.6 0.00 0.00 0.00 44 999.1
20260504171437 63 298 4.3 12.2 0.00 0.00 0.00 43 999.0
20260504170934 62 206 2.6 2.6 0.00 0.00 0.00 43 999.1
20260504170430 63 356 9.6 16.5 0.00 0.00 0.00 41 999.2
20260504160349 64 310 1.7 2.6 0.00 0.00 0.00 41 998.9
20260504150814 62 162 0.9 1.7 0.00 0.00 0.00 42 998.5
20260504150310 62 16 2.6 4.3 0.00 0.00 0.00 40 998.7
20260504141240 60 20 2.6 4.3 0.00 0.00 0.00 41 998.6
20260504140737 60 344 8.7 12.2 0.00 0.00 0.00 39 998.7
20260504140232 60 51 3.5 6.1 0.00 0.00 0.00 38 998.6
20260504130701 60 166 1.7 1.7 0.00 0.00 0.00 48 997.2
20260504130157 60 149 0.9 1.7 0.00 0.00 0.00 48 997.0
20260504120121 58 191 0.9 1.7 0.00 0.00 0.00 47 996.5
20260504110549 58 191 4.3 4.3 0.00 0.00 0.00 45 996.1
20260504100510 57 193 1.7 1.7 0.00 0.00 0.00 47 996.5
20260504081903 56 184 1.7 1.7 0.00 0.00 0.00 46 998.3
20260504081400 56 196 0.0 1.7 0.00 0.00 0.00 47 998.5
20260504080856 56 161 0.0 1.7 0.00 0.00 0.00 46 998.7
20260504080353 56 180 1.7 1.7 0.00 0.00 0.00 46 998.6
20260504070320 55 184 1.7 2.6 0.00 0.00 0.00 47 999.5
20260504060241 53 162 0.0 0.0 0.00 0.00 0.00 52 1000.8
20260504050709 48 166 0.0 0.0 0.00 0.00 0.00 62 1001.9
20260504050206 49 166 0.0 0.0 0.00 0.00 0.00 62 1002.1
20260504045703 48 166 0.0 0.0 0.00 0.00 0.00 63 1002.0
20260504045203 48 166 0.0 0.0 0.00 0.00 0.00 62 1002.2
20260504044702 49 166 0.0 0.0 0.00 0.00 0.00 61 1002.3
20260504044159 49 166 0.0 0.0 0.00 0.00 0.00 60 1002.5
20260504043655 50 166 0.0 0.0 0.00 0.00 0.00 60 1002.6
20260504043152 50 166 0.0 0.0 0.00 0.00 0.00 59 1002.6
20260504042650 50 166 0.0 0.0 0.00 0.00 0.00 58 1002.7
20260504042146 51 166 0.0 0.0 0.00 0.00 0.00 57 1002.8
20260504041642 51 166 0.0 0.0 0.00 0.00 0.00 57 1002.7
20260504041138 51 166 0.0 0.0 0.00 0.00 0.00 57 1003.0
20260504040636 51 166 0.0 0.0 0.00 0.00 0.00 56 1003.1
20260504040132 50 166 0.0 0.0 0.00 0.00 0.00 57 1002.9
20260504035629 51 166 0.0 0.0 0.00 0.00 0.00 56 1003.1
20260504035125 51 166 0.0 0.0 0.00 0.00 0.00 55 1003.5
20260504034624 51 166 0.0 0.0 0.00 0.00 0.00 54 1003.4
20260504034120 52 166 0.0 0.0 0.00 0.00 0.00 54 1003.5
20260504033618 52 166 0.0 0.0 0.00 0.00 0.00 53 1003.6
20260504033115 52 166 0.0 0.0 0.00 0.00 0.00 52 1003.9
20260504032612 53 166 0.0 0.0 0.00 0.00 0.00 51 1003.9
20260504032109 53 166 0.0 0.0 0.00 0.00 0.00 50 1003.7
20260504031606 53 166 0.0 0.0 0.00 0.00 0.00 50 1003.6
20260504031102 54 166 0.0 0.0 0.00 0.00 0.00 48 1003.8
20260504030559 54 166 0.0 0.0 0.00 0.00 0.00 47 1003.8
20260504030055 55 166 0.0 0.0 0.00 0.00 0.00 47 1004.1
20260504025553 55 166 0.0 0.0 0.00 0.00 0.00 46 1003.9
20260504025049 56 166 0.0 0.0 0.00 0.00 0.00 44 1004.0
20260504024547 57 166 0.0 0.0 0.00 0.00 0.00 43 1003.9
20260504024043 57 165 0.0 0.0 0.00 0.00 0.00 42 1004.1
20260504023540 58 166 0.0 0.0 0.00 0.00 0.00 40 1004.1
20260504023036 59 166 0.0 0.0 0.00 0.00 0.00 39 1004.0
20260504022532 60 166 0.0 0.0 0.00 0.00 0.00 38 1004.1
20260504022028 60 163 0.0 0.0 0.00 0.00 0.00 38 1004.2
20260504021526 60 167 0.0 0.0 0.00 0.00 0.00 37 1004.2
20260504021023 61 168 0.0 0.0 0.00 0.00 0.00 36 1004.2
20260504020520 62 164 0.0 0.0 0.00 0.00 0.00 35 1004.1
20260504020016 62 167 0.0 0.0 0.00 0.00 0.00 35 1004.4
20260504015513 62 167 0.0 0.0 0.00 0.00 0.00 34 1004.0
20260504015009 62 170 0.0 0.0 0.00 0.00 0.00 35 1004.0
20260504014505 63 164 0.9 1.7 0.00 0.00 0.00 34 1004.2
20260504014002 63 168 0.0 0.0 0.00 0.00 0.00 33 1004.2
20260504013500 64 166 0.0 0.0 0.00 0.00 0.00 33 1004.1
20260504012955 64 132 0.0 1.7 0.00 0.00 0.00 33 1004.4
20260504012454 64 173 0.0 0.0 0.00 0.00 0.00 32 1004.3
20260504011952 65 155 0.0 0.0 0.00 0.00 0.00 31 1004.2
20260504011448 65 178 0.0 0.0 0.00 0.00 0.00 31 1004.4
20260504010944 66 156 0.0 0.0 0.00 0.00 0.00 30 1004.2
20260504010440 66 161 0.0 0.0 0.00 0.00 0.00 31 1004.3
20260504005936 66 117 0.9 1.7 0.00 0.00 0.00 29 1004.4
20260504005433 66 269 1.7 2.6 0.00 0.00 0.00 29 1004.4
20260504004930 67 173 0.0 0.0 0.00 0.00 0.00 29 1004.4
20260504004428 67 172 0.0 0.0 0.00 0.00 0.00 29 1004.6
20260504003925 68 151 0.0 0.0 0.00 0.00 0.00 29 1004.5
20260504003421 68 159 0.0 0.0 0.00 0.00 0.00 29 1004.4
20260504002918 68 177 0.9 1.7 0.00 0.00 0.00 28 1004.5
20260504002415 68 166 0.9 1.7 0.00 0.00 0.00 29 1004.5
20260504001913 68 175 0.0 0.0 0.00 0.00 0.00 29 1004.4
20260504001410 68 154 1.7 2.6 0.00 0.00 0.00 28 1004.4
20260504000906 68 184 1.7 1.7 0.00 0.00 0.00 28 1004.4
20260504000403 68 176 1.7 1.7 0.00 0.00 0.00 29 1004.7
20260503235901 69 87 1.7 1.7 0.00 0.00 0.00 28 1004.7
20260503235359 69 164 0.9 1.7 0.00 0.00 0.00 28 1004.5
20260503234856 69 10 2.6 6.1 0.00 0.00 0.00 28 1004.6
20260503234353 69 166 0.0 0.0 0.00 0.00 0.00 28 1004.6
20260503233851 69 166 0.0 0.0 0.00 0.00 0.00 28 1004.6
20260503233347 69 187 0.0 1.7 0.00 0.00 0.00 27 1004.5
20260503232843 69 146 2.6 2.6 0.00 0.00 0.00 27 1004.6
20260503232341 70 155 0.0 1.7 0.00 0.00 0.00 27 1004.8
20260503231839 71 207 3.5 6.1 0.00 0.00 0.00 26 1004.8
20260503231336 71 198 1.7 2.6 0.00 0.00 0.00 27 1004.8
20260503230832 71 204 0.0 1.7 0.00 0.00 0.00 26 1005.2
20260503230329 72 202 3.5 4.3 0.00 0.00 0.00 26 1004.9
20260503225826 72 275 1.7 1.7 0.00 0.00 0.00 27 1004.9
20260503225322 72 213 1.7 1.7 0.00 0.00 0.00 26 1005.2
20260503224818 72 254 1.7 2.6 0.00 0.00 0.00 27 1005.2
20260503224316 72 33 1.7 4.3 0.00 0.00 0.00 26 1005.0
20260503223814 72 44 5.2 7.8 0.00 0.00 0.00 24 1005.4
20260503223311 72 219 1.7 1.7 0.00 0.00 0.00 26 1005.0
20260503222806 72 62 4.3 6.1 0.00 0.00 0.00 24 1005.2
20260503222305 72 148 2.6 2.6 0.00 0.00 0.00 24 1005.2
20260503221803 72 195 0.9 1.7 0.00 0.00 0.00 24 1005.2
20260503221301 72 21 6.1 8.7 0.00 0.00 0.00 24 1005.3
20260503220757 72 223 1.7 2.6 0.00 0.00 0.00 25 1005.3
20260503220254 72 276 0.9 1.7 0.00 0.00 0.00 26 1005.4
20260503215751 72 37 3.5 7.8 0.00 0.00 0.00 25 1005.4
20260503215248 73 205 1.7 1.7 0.00 0.00 0.00 26 1005.4
20260503214746 73 195 1.7 1.7 0.00 0.00 0.00 27 1005.5